Flag for Germany Weather past 2 weeks in Filderstadt, Baden-Württemberg, Germany

Now
69 °F

Overcast.


Feels Like: 69 °F
Forecast: 47 / 64 °F
Wind: 5 mph from Northwest

Location: Stuttgart-Echterdingen

Current Time: May 29, 2015 at 4:39:56 PM

Latest Report: May 29, 2015 at 4:00 PM


Visibility: 37 mi

Pressure: 29.80 "Hg

Humidity: 45%

Dew point: 46 °F

Location of FilderstadtLocation

Historic Weather in Filderstadt — Graph

°F

Filderstadt temperature yesterday

Maximum temperature yesterday: 69 °F (at 4:00 PM)
Minimum temperature yesterday: 39 °F (at 6:00 AM)
Average temperature yesterday: 55 °F

Past Weeks' High & Low Weather Summary

 TemperatureHumidityPressure
High73 °F (May 18, 6:00 PM)98% (May 16, 7:00 AM)30.36 "Hg (May 16, 7:00 AM)
Low37 °F (May 22, 6:00 AM)27% (May 22, 4:00 PM)29.71 "Hg (May 18, 7:00 PM)
Average56 °F68%30.06 "Hg
* Reported May 14 3:00 PM — May 29 3:00 PM, Filderstadt, Weather by CustomWeather, © 2015

Note: Actual official high and low records may vary slightly from our data, if they occured in-between our weather recording intervals... More about our weather records

Advertising

Filderstadt weather history for previous 24 hours

 ConditionsComfort  
Time TempWeatherWind HumidityBarometerVisibility
3:00 PM
Fri, May 29
71 °FMild.7 mph45%29.81 "HgN/A
2:00 PM68 °FPartly sunny.2 mph62%29.84 "Hg22 mi
1:00 PM66 °FOvercast.3 mph56%29.87 "Hg19 mi
12:00 PM64 °FSprinkles. Overcast.2 mph67%29.90 "Hg19 mi
10:00 AM62 °FOvercast.2 mph67%29.92 "Hg22 mi
9:00 AM58 °FPartly sunny.2 mph75%29.94 "Hg22 mi
8:00 AM55 °FLow clouds.1 mph89%29.96 "Hg22 mi
7:00 AM54 °FLow clouds.1 mph94%29.97 "Hg22 mi
6:00 AM53 °FRain showers. Overcast.2 mph93%29.97 "Hg5 mi
4:00 AM56 °FOvercast.1 mph73%29.98 "Hg28 mi
3:00 AM56 °FOvercast.3 mph72%29.99 "Hg28 mi
2:00 AM55 °FOvercast.2 mph73%29.99 "Hg28 mi
1:00 AM58 °FOvercast.3 mph64%29.98 "Hg31 mi
10:00 PM
Thu, May 28
61 °FOvercast.3 mph56%29.97 "Hg34 mi
9:00 PM64 °FOvercast.2 mph47%29.95 "Hg34 mi
8:00 PM66 °FOvercast.3 mph42%29.94 "Hg34 mi
7:00 PM67 °FOvercast.6 mph38%29.94 "Hg31 mi
6:00 PM69 °FPartly sunny.3 mph41%29.94 "Hg31 mi
4:00 PM69 °FPassing clouds.5 mph39%29.96 "Hg28 mi
Weather by CustomWeather, © 2015

See weather overviewHow to use our weather pages